Погода в Нижневартовске

Погода в Нижневартовске : погода сейчас, прогноз погоды и архив. Всё, что Вы хотите узнать о погоде в Нижневартовске!

Поиск расширенной информации на нашем сайте:

Другие новости

Новости СМИ2

Главная страница сайта

Новости сайта

03.07.2017

Напоминаем, что на нашем специализированном сайте Метеоцентр.Азия вы можете получить высокодетализированные автоматические прогнозы погоды по пунктам России, СНГ и мира в авиационном формате (включающие направление и скорость ветра, видимость, явления погоды, количество и форму облачности, нижнюю и верхнюю границу облачности).

Рекомендуем: Отзывы: Горящие туры из кемерово - сезонные скидки.

Погода в Нижневартовске - сегодня

Время (UTC), дата Ветер
(°,м/с) 
Видим.   Явления Облачность Т
(°С)
Тd
(°С)
f(%) Тe
(°С)
Pmin
(гПа)
dP
(гПа)
Po
(мм)
O2
(г/м3)
Тmin Tmax R s Состояние
почвы
09 16.09.17 030 (СВ) 20000 м    10/10 420 м 
[St]
+6 +3.4 83 +5  1012.3  2.6  754  297           
12 16.09.17 тихо ()   20000 м    10/10 1050 м 
[Sc]
+6.3 +2.1 74 +6  1014.5  2.2  756  297           
15 16.09.17 170 (Ю) 6000 м  дымка  6/0 верхняя 
[Ci sp]
+2.6 +2.6 100 +3  1015  0.5  756  301    +6.3  0.0     
18 16.09.17 160 (Ю) 10 км  слаб. дождь  10/0 средняя 
[As op]
+4.7 +4.7 100 +6  1014.5  -0.5  751  297           
03 17.09.17 150 (ЮВ) 20000 м    10/10 180 м 
[St]
+6 +6 100 +4  1005.5  -1.9  749  294  +2.6      мокрая 
06 17.09.17 170 (Ю) 20000 м    10/10 150 м 
[St]
+8.7 +8.7 100 +8  1003.5  -1.9  748  290           
12 17.09.17 240 (ЮЗ) 20000 м    1/1 600 м кучево-дожд. 
[Cb calv]
+13.4 +11.1 86 +17  1002.5  -0.2  747  285           
18 17.09.17 230 (ЮЗ) 20000 м  в посл. час дождь  10/0 средняя 
[As trans]
+7.7 +7.7 100 +8  1001.3  -0.8  746  291           
21 17.09.17 230 (ЮЗ) 20000 м    10/0 средняя 
[As op]
+8.7 +8.7 100 +9  1000.4  -0.9  745  290           
00 18.09.17 220 (ЮЗ) 20000 м    9/5 1080 м средняя 
[Sc|Ac trans]
+7.5 +7.5 100 +7  1000.3  -0.1  745  291           
03 18.09.17 230 (ЮЗ) 20000 м  в посл. час ливневой дождь  10/5 900 м кучево-дожд., средняя 
[Cb calv|Ac trans]
+8.7 +8.7 100 +8  1000.5  0.2  746  290  +7.4    0.6     
06 18.09.17 230 (ЮЗ) 20000 м  в посл. час дождь{ливн. осадки}  10/8 240 м кучево-дожд., средняя 
[Cb calv|Ac trans]
+10.2   1000.9  0.4  746             
12 18.09.17 230 (ЮЗ) 20000 м  {ливн. осадки}  10/0 средняя, верхняя 
[Ac trans|Ci fib]
+10 +10 100 +11  1002.4  0.7  747  288           
15 18.09.17 250 (З) 20000 м    9/9 1110 м 
[Sc]
+8 +8 100 +8  1003.5  1.1  748  291    +11  0.6     
18 18.09.17 240 (ЮЗ) 20000 м    8/5 330 м средняя 
[St|Ac trans]
+6.6 +6.6 100 +8  1003.9  0.4  748  293           
21 18.09.17 270 (З) 20000 м    9/9 100 м 
[St]
+6.7 +6.7 100 +8  1004.2  0.3  748  293           
00 19.09.17 290 (З) 20000 м    10/10 100 м 
[St]
+6.9 +6.9 100 +8  1005.5  1.3  749  293           
03 19.09.17 300 (СЗ) 20000 м    10/10 150 м 
[St]
+7.6 +7.6 100 +8  1007.4  1.9  751  293  +6.4         
06 19.09.17 290 (З) 20000 м    10/10 300 м 
[St]
+8.3 +7.8 97 +8  1009.6  2.2  752  293           
09 19.09.17 280 (З) 20000 м    10/10 240 м 
[St]
+7.9 +7.7 99 +7  1012  2.3  754  294           
12 19.09.17 290 (З) 20000 м  {морось}  10/10 180 м 
[St]
+7.3 +7.3 100 +6  1014  755  295           
15 19.09.17 290 (З) 5000 м  слаб. морось  10/10 150 м 
[St]
+6.3 +6.3 100 +5  1015.8  1.7  757  297    +8.5  0.0     
18 19.09.17 300 (СЗ) 20000 м  в посл. час морось  10/10 120 м 
[St]
+6.3 +6.3 100 +6  1016.8  758  297           
21 19.09.17 290 (З) 20000 м  в посл. час морось  10/10 100 м 
[St]
+5.7 +5.7 100 +5  1017.1  0.3  758  298           
00 20.09.17 280 (З) 20000 м  в посл. час морось  10/10 150 м 
[St]
+5.6 +5.6 100 +5  1017.3  0.2  758  298           
Время (UTC), дата Ветер
(°,м/с) 
Видим.   Явления Облачность Т
(°С)
Тd
(°С)
f(%) Тe
(°С)
Pmin
(гПа)
dP
(гПа)
Po
(мм)
O2
(г/м3)
Тmin Tmax R s Состояние
почвы

Для получения пояснительной информации подведите курсор к названию столбца.

ПОГОДА в Нижневартовске - архив

Всё, что Вы хотите узнать о погоде в Нижневартовске - удобно и подробно!

Выберите нужную дату (начиная с 1 января 2015* года) и нажмите кнопку "Найти".
Будут отображены архивные сводки погоды по пункту Нижневартовск, начиная с указанной даты.


Отображать данные в формате CSV (для использования в таблицах Excel)


Внимание! Наш архив погоды предназначен исключительно для личного некоммерческого использования в познавательных целях. Если Вам необходимы официальные справки о состоянии погоды (для производственных, юридических, коммерческих и т.п. целей), обращайтесь в органы Росгидромета.

*Примечание: данная дата относится к архиву по метеостанциям СССР (Россия, СНГ, Балтия).
Архив по метеостанциям Зарубежной Европы и Азии (кроме Китая) хранится 10 дней, по другим регионам земного шара (Китай, Африка, Америка, Австралия, Океания) - 1 день.

Нижневартовск - район местоположения метеостанции


Название, широта, долгота, высота метеостанции:
Нижневартовск 60.8°ш. 76.7°д. 44 м над ур. моря [Российская Федерация]

Дополнительная информация

В oтличие oт бoльшинства пoгoдных сайтoв мы публикуем пoдрoбную метеoинфoрмацию в детальнoм прoфессиoнальнoм фoрмате.

Характеристики температуры и влажнoсти вoздуха измеряются на высoте 2 м в тени вдали oт зданий и деревьев.
Скoрoсть ветра измеряется на высoте 10 м (на урoвне рoста челoвека скoрoсть ветра ниже в 1.5-2 раза). Если метеoстанция нахoдится в гoрoде или в лесу, тo скoрoсть ветра занижена на 2-4 м/с пo сравнению с oткрытым местoм. Скoрoсть ветра над акватoриями крупных рек и oзёр, а также на вершинах хoлмoв на 2-5 м/с выше, чем в oбычных услoвиях.
Атмoсфернoе давление в разных тoчках местнoсти мoжет значительнo oтличаться oт давления на метеoстанции, в зависимoсти oт услoвий рельефа (при пoдъёме на 10 м давление пoнижается примернo на 1 мм рт.ст.).